Wind_Speed
14 16 17 19 20 21 21 22 23 24 26 27 29 31 32 33 34 35 35 35 34 34 36 36 38 39 36 38 34 27 31 18 15 18 23 32 35 37 41 40 36 42 40 37 33 33 33
17 17 17 17 16 17 18 19 20 21 23 25 27 29 30 32 35 37 37 37 35 35 36 38 38 39 39 43 27 28 33 32 24 20 19 25 29 31 34 36 37 39 29 35 36 36 36
16 13 12 13 13 14 16 18 20 23 25 26 28 29 31 32 35 37 39 39 37 37 37 37 37 42 47 42 28 29 26 26 32 33 28 23 22 28 28 30 31 33 37 33 28 28 32
10 9 9 11 13 15 18 20 23 26 29 30 32 33 35 37 37 37 40 40 37 38 37 36 37 40 50 39 31 29 31 25 27 31 33 28 25 28 30 25 20 21 24 29 34 32 28
9 8 9 11 13 16 19 22 25 28 31 34 37 38 40 41 39 38 40 40 40 38 38 37 37 37 47 35 31 29 31 30 22 21 21 22 28 30 29 23 24 25 17 15 18 27 27
9 9 10 12 15 18 21 24 27 31 34 37 39 40 42 44 41 40 39 40 38 38 38 38 38 35 33 26 24 15 24 28 31 27 26 26 28 31 29 24 21 25 20 30 30 23 23
9 9 12 14 18 21 24 27 29 32 35 38 41 43 45 45 40 40 40 40 37 34 36 35 33 36 28 24 27 24 18 22 28 30 33 33 34 38 33 30 29 27 19 19 18 16 26
10 12 15 18 20 23 25 29 32 35 38 41 43 45 45 43 38 37 37 35 31 28 45 35 38 41 38 27 33 19 24 21 21 25 26 33 42 33 28 28 26 25 25 28 28 29 31
13 15 17 19 22 24 27 30 33 36 40 43 45 46 44 42 35 34 33 30 26 23 38 42 35 38 33 32 38 26 27 25 24 23 23 29 15 27 32 32 30 28 26 24 23 25 30
15 18 20 21 23 26 28 31 33 37 41 44 46 47 44 41 35 30 31 28 22 19 25 38 24 20 22 29 40 31 32 29 25 23 21 17 20 14 15 26 26 26 23 19 18 15 12
18 19 21 22 24 26 29 32 35 38 42 45 47 45 38 33 32 29 26 22 17 9 6 12 8 9 13 13 15 24 34 34 29 25 20 11 10 23 22 15 18 18 9 6 9 14 17
19 21 21 23 25 27 30 33 36 39 42 45 43 35 31 29 27 25 24 17 12 7 8 11 8 18 12 10 7 13 29 35 29 27 23 21 11 11 18 19 12 12 8 8 11 12 4
20 21 22 24 26 28 30 34 37 39 41 39 35 32 31 29 23 21 20 11 6 8 6 8 10 21 11 9 4 16 26 30 25 20 24 20 25 11 7 13 15 13 8 4 5 3 4
21 22 24 26 27 28 30 34 36 38 37 34 34 34 25 21 21 18 15 7 9 6 14 29 25 23 12 7 11 16 23 24 18 11 15 19 8 25 15 14 8 11 7 6 4 3 3
22 23 25 26 27 28 30 33 34 34 32 33 33 28 21 19 19 15 11 11 6 8 13 23 9 10 7 7 7 16 14 15 14 13 3 11 3 8 17 17 12 8 7 9 7 17 4
23 24 26 27 27 27 29 32 32 29 29 31 27 23 18 15 13 15 12 19 16 8 16 17 7 9 9 8 6 16 13 8 7 13 6 9 8 8 12 10 12 11 4 5 5 3 4
24 24 26 27 27 26 27 29 26 25 26 24 22 22 16 13 13 15 19 23 22 19 18 14 13 14 6 13 7 13 9 7 8 12 14 9 6 8 8 5 9 9 11 8 4 5 3
24 24 25 26 25 24 26 25 21 22 19 19 21 18 12 19 13 20 21 20 17 16 14 21 16 10 9 14 14 9 14 7 10 12 13 9 7 7 4 2 1 2 6 8 5 3 8
25 25 25 24 23 22 23 21 16 14 12 18 19 11 13 19 11 14 13 14 14 20 13 15 17 10 10 15 9 12 12 19 7 12 7 9 6 6 9 9 9 8 4 1 8 12 10
25 26 25 24 22 20 20 16 13 10 12 14 17 19 16 13 17 16 22 12 9 12 6 9 11 7 3 11 9 12 15 14 12 12 12 10 10 9 6 4 3 4 6 7 11 8 12
25 24 23 22 21 19 17 14 12 11 12 12 14 16 21 17 15 22 19 18 14 4 5 1 2 10 8 5 10 6 8 11 7 10 7 8 8 4 3 1 6 9 11 11 16 21 19
25 24 22 21 20 18 16 12 12 12 13 12 15 18 21 23 16 17 17 18 19 9 4 1 6 9 8 7 6 4 5 5 4 5 5 7 4 3 6 7 9 13 14 14 15 17 23
25 23 22 20 19 17 15 12 12 13 16 11 13 14 20 21 18 13 15 19 16 10 8 8 4 4 3 7 5 3 4 3 2 5 7 5 3 6 3 5 10 9 5 6 13 15 17
24 23 21 20 19 17 15 14 13 13 15 11 9 13 17 18 15 10 10 10 9 10 8 2 3 2 4 5 7 5 5 7 8 7 9 8 8 5 3 6 2 3 10 10 13 15 17
24 22 22 20 18 16 16 15 14 15 12 12 10 11 13 15 11 7 8 9 4 4 5 3 2 2 4 5 5 4 2 2 5 7 6 6 6 3 2 3 12 17 13 4 13 19 18
24 23 22 20 19 17 17 15 14 15 13 14 10 9 12 13 7 5 6 7 6 5 2 4 4 4 6 6 6 4 3 3 2 2 7 9 5 7 3 1 2 2 4 11 19 27 13
24 24 23 20 19 17 16 16 15 15 15 17 13 12 12 13 4 6 6 3 4 5 5 5 5 5 6 5 4 2 2 1 1 1 3 6 4 7 10 5 8 14 19 21 13 15 17
25 24 23 20 19 17 17 17 17 18 16 18 18 13 14 15 13 13 8 7 8 6 5 5 5 4 3 3 2 1 0 1 2 2 4 2 3 3 1 5 9 9 14 11 13 13 16
26 24 22 20 18 18 18 17 18 19 17 17 17 14 11 18 13 6 3 6 8 7 7 4 4 2 2 5 6 1 2 3 4 2 2 2 1 7 8 11 27 25 18 12 8 8 9
Wind_Direction
286 289 293 297 298 299 302 304 305 307 307 306 304 303 303 302 301 297 295 292 290 290 288 284 282 280 276 268 261 263 263 259 245 250 232 229 231 236 240 241 241 248 251 255 257 258 261
285 290 295 299 305 311 315 316 317 317 318 319 317 315 311 306 300 296 294 292 290 287 285 282 281 279 278 269 276 256 253 246 237 238 237 228 231 237 246 245 243 247 260 257 257 257 264
284 291 300 306 314 317 318 320 321 322 322 323 319 317 317 315 306 300 293 288 287 284 280 281 279 278 272 266 275 259 262 250 242 235 230 234 231 235 240 247 246 246 251 251 250 254 256
281 289 297 308 318 325 329 330 328 327 325 323 322 318 317 318 313 303 295 292 285 282 281 277 275 274 271 276 269 262 256 245 235 236 231 232 234 239 236 238 240 248 251 252 256 250 252
271 283 301 313 322 327 329 329 329 328 326 325 325 322 320 319 316 308 301 296 290 283 278 275 273 271 277 283 271 255 248 239 229 229 220 222 230 235 235 239 243 238 239 244 258 258 255
269 289 305 315 322 325 325 327 328 328 326 325 322 320 318 316 314 309 303 299 298 286 278 274 270 270 263 265 270 254 244 232 229 227 223 220 224 231 231 224 223 234 242 251 255 257 256
273 292 306 315 319 322 324 325 324 323 323 322 320 319 317 315 313 311 307 303 301 281 278 272 262 264 260 265 260 241 226 213 222 224 221 220 221 225 230 234 242 245 248 258 263 259 265
275 293 305 311 315 317 321 321 321 322 322 320 318 317 315 313 312 309 310 312 308 302 290 267 263 264 266 252 249 226 207 207 219 224 213 217 228 231 237 239 245 249 256 262 269 272 274
280 295 302 307 310 316 319 318 320 320 320 319 317 315 312 309 309 306 307 306 293 290 291 285 280 271 264 255 248 221 214 207 212 213 212 218 229 240 237 239 238 242 249 260 270 275 273
282 292 299 305 312 317 317 317 319 318 319 318 317 313 309 307 305 305 304 305 290 292 303 305 291 277 256 242 243 231 218 213 213 216 216 231 234 236 220 229 234 236 245 253 262 278 287
282 291 298 306 312 314 316 317 318 318 319 318 316 313 311 312 309 301 298 299 278 289 289 303 320 283 261 254 239 226 213 212 212 216 209 216 228 222 214 205 216 220 223 236 275 292 298
282 291 299 306 311 314 316 317 317 319 320 318 315 315 315 310 307 295 296 301 264 254 249 307 325 330 303 176 173 198 196 204 221 225 238 238 220 212 220 224 202 197 210 269 294 295 302
280 289 298 304 311 314 317 316 318 320 320 318 316 315 316 310 301 281 285 295 220 236 261 296 297 324 270 200 152 195 188 192 197 193 209 214 218 199 165 188 200 214 218 10 9 23 252
279 290 297 305 311 315 316 316 319 320 320 317 315 315 316 296 284 281 281 249 234 270 276 289 302 322 236 218 185 175 170 180 190 182 187 196 204 212 211 198 174 192 220 156 194 216 243
279 289 298 305 310 314 315 317 319 321 320 317 317 319 317 297 285 278 278 215 229 262 306 324 305 336 189 227 213 193 189 196 202 183 132 167 142 181 215 216 217 198 199 221 246 275 291
279 288 297 305 309 313 315 317 320 321 321 321 320 329 328 310 288 279 273 256 238 244 318 325 352 340 10 17 190 186 182 181 187 185 140 132 116 131 169 185 203 215 169 139 182 261 270
278 288 297 303 307 310 315 317 321 322 324 326 328 341 344 327 298 289 265 267 265 254 295 322 332 327 7 352 110 166 122 126 170 187 186 165 124 136 135 183 197 193 213 219 225 236 268
279 288 297 300 303 309 315 317 321 324 332 336 339 346 336 340 310 295 252 289 269 251 267 306 322 5 357 31 70 105 92 103 98 146 153 151 133 121 116 184 200 226 261 248 229 210 239
278 288 293 297 300 307 311 314 318 323 339 345 357 351 339 347 349 347 302 292 255 246 274 304 303 330 7 40 76 85 96 87 93 144 124 142 107 117 116 96 125 128 55 175 289 272 255
277 287 294 295 295 303 308 306 307 295 318 341 352 0 353 351 334 355 351 320 280 259 254 255 313 338 76 36 72 88 92 77 87 95 114 115 96 86 94 63 359 349 314 292 293 265 280
276 283 285 285 291 301 300 296 286 266 297 328 339 342 347 334 329 328 352 357 342 184 193 128 123 42 47 47 68 61 76 104 87 77 92 105 97 83 68 51 336 322 308 285 282 288 268
272 278 280 280 284 292 291 278 267 255 268 301 318 333 330 327 320 318 356 9 31 112 115 4 37 44 41 89 81 55 40 31 60 43 28 62 90 1 326 318 319 322 319 284 282 304 281
270 275 276 275 280 288 286 272 257 249 254 285 308 327 326 319 320 304 325 351 42 64 100 73 52 47 61 18 5 333 332 4 354 337 337 326 339 326 279 294 314 309 275 320 300 296 300
268 271 271 269 276 281 277 263 249 247 243 261 298 316 319 304 309 297 299 319 26 47 31 13 309 306 357 25 12 337 309 294 301 322 309 293 308 301 286 332 230 229 189 313 286 295 303
265 267 264 265 272 273 270 258 250 236 246 237 274 300 305 306 313 286 284 284 296 35 33 54 18 359 5 354 16 39 25 29 70 55 12 261 267 283 285 281 281 278 275 290 350 306 306
260 260 257 261 267 269 264 259 244 230 227 233 246 275 300 298 348 335 299 266 263 274 333 11 14 19 3 11 28 36 43 27 60 77 17 30 228 228 254 322 277 71 231 278 303 308 310
255 255 252 256 260 263 257 256 234 224 222 229 235 249 277 291 315 316 272 306 238 245 266 293 309 344 1 10 2 22 12 318 23 90 357 353 337 242 256 264 272 275 276 293 282 270 303
250 249 250 253 256 257 254 247 227 220 222 228 235 243 268 279 284 278 270 266 249 240 249 292 301 313 320 28 356 16 352 197 288 261 289 312 311 316 225 252 259 269 308 290 290 271 297
244 242 245 249 253 256 251 231 221 219 221 227 240 243 257 267 270 288 281 271 259 250 246 249 271 306 82 21 9 320 280 261 277 298 351 318 319 294 277 272 278 290 297 305 300 254 274
Height
3090 3090 3089 3088 3087 3085 3084 3082 3080 3078 3076 3074 3072 3069 3067 3064 3063 3059 3057 3055 3052 3049 3047 3044 3041 3040 3041 3039 3041 3048 3044 3045 3046 3048 3050 3052 3053 3057 3057 3059 3062 3057 3062 3066 3071 3070 3071
3087 3086 3085 3085 3084 3082 3081 3079 3077 3075 3073 3069 3067 3065 3062 3059 3056 3053 3050 3048 3046 3044 3041 3037 3035 3033 3033 3027 3038 3038 3037 3040 3042 3044 3046 3047 3050 3053 3053 3054 3055 3054 3056 3059 3063 3065 3066
3084 3083 3082 3082 3080 3079 3078 3076 3074 3072 3069 3065 3063 3060 3057 3054 3050 3047 3043 3040 3039 3037 3034 3031 3029 3025 3021 3021 3030 3029 3030 3034 3034 3038 3040 3045 3047 3046 3046 3049 3050 3050 3050 3053 3055 3060 3061
3080 3080 3079 3079 3078 3076 3074 3072 3070 3067 3065 3062 3058 3055 3051 3048 3045 3040 3035 3032 3030 3028 3026 3024 3022 3018 3007 3017 3021 3023 3024 3026 3027 3030 3034 3039 3041 3040 3039 3044 3046 3046 3045 3045 3049 3056 3058
3078 3077 3076 3076 3074 3073 3070 3068 3066 3063 3061 3057 3052 3048 3044 3040 3036 3032 3028 3024 3022 3018 3015 3015 3014 3013 3004 3009 3011 3012 3015 3019 3023 3024 3029 3033 3033 3034 3037 3038 3042 3042 3039 3041 3045 3050 3053
3075 3074 3073 3072 3070 3069 3068 3065 3062 3059 3056 3051 3047 3043 3039 3035 3030 3025 3021 3016 3012 3009 3007 3006 3004 3008 3004 3006 3006 3004 3008 3012 3015 3019 3023 3026 3029 3028 3028 3033 3032 3041 3039 3038 3040 3046 3046
3071 3070 3070 3069 3067 3065 3063 3060 3057 3054 3051 3046 3043 3037 3033 3028 3025 3019 3014 3009 3007 3003 2996 2997 2997 2994 2996 3000 3001 3000 3003 3006 3007 3011 3014 3019 3022 3015 3022 3029 3033 3038 3038 3036 3037 3041 3039
3068 3067 3066 3065 3063 3061 3058 3055 3053 3048 3045 3041 3037 3032 3027 3023 3020 3015 3009 3003 2999 2995 2979 2989 2988 2984 2987 2995 2988 2994 2999 3002 3001 3004 3011 3017 3009 3015 3022 3025 3029 3033 3035 3034 3034 3035 3035
3064 3063 3062 3060 3059 3055 3053 3051 3047 3043 3040 3035 3031 3026 3021 3017 3015 3011 3005 3002 2997 2993 2983 2972 2977 2974 2979 2983 2979 2990 2993 2997 2999 3002 3004 3007 3010 3011 3016 3020 3024 3027 3030 3032 3030 3030 3030
3060 3059 3058 3056 3053 3051 3048 3045 3041 3038 3034 3030 3024 3019 3014 3010 3010 3005 3000 2998 2995 2992 2983 2969 2966 2966 2969 2969 2967 2981 2987 2995 2997 2999 3004 3005 3008 3010 3011 3015 3020 3022 3026 3027 3027 3028 3027
3055 3054 3052 3051 3048 3046 3043 3040 3035 3032 3028 3023 3017 3012 3006 3003 3000 2998 2996 2994 2993 2994 2988 2972 2967 2965 2963 2966 2966 2971 2980 2987 2989 2995 2999 3002 3004 3006 3008 3011 3015 3020 3022 3024 3024 3024 3022
3050 3050 3047 3046 3043 3040 3037 3034 3031 3026 3022 3016 3010 3006 3002 2999 2996 2991 2990 2991 2992 2995 2983 2971 2968 2965 2964 2963 2965 2966 2972 2981 2988 2993 2996 3000 3002 3004 3005 3009 3013 3016 3020 3021 3020 3019 3020
3045 3044 3042 3041 3038 3035 3032 3029 3025 3020 3015 3009 3005 3001 2997 2992 2990 2988 2987 2989 2992 2986 2979 2972 2966 2966 2965 2965 2965 2966 2969 2975 2981 2988 2990 2994 2998 3001 3003 3006 3011 3013 3016 3018 3021 3020 3022
3039 3039 3038 3036 3033 3029 3026 3024 3020 3015 3009 3004 3000 2996 2992 2986 2984 2984 2985 2988 2988 2982 2979 2971 2967 2963 2961 2965 2967 2968 2970 2975 2980 2983 2983 2990 2995 2996 3000 3004 3006 3009 3012 3015 3020 3019 3018
3034 3034 3033 3031 3028 3024 3021 3018 3014 3009 3004 2999 2995 2991 2988 2985 2982 2982 2984 2985 2982 2981 2979 2972 2966 2963 2962 2964 2966 2969 2973 2976 2978 2979 2982 2985 2989 2990 2997 3001 3005 3006 3010 3014 3017 3017 3017
3029 3028 3027 3025 3023 3020 3016 3013 3009 3004 3000 2995 2991 2988 2986 2983 2981 2982 2983 2980 2979 2980 2977 2974 2970 2967 2963 2964 2965 2967 2972 2974 2975 2978 2980 2984 2988 2991 2995 2998 3002 3005 3009 3013 3016 3016 3011
3023 3022 3021 3019 3018 3015 3012 3009 3004 3001 2997 2993 2989 2987 2985 2983 2982 2981 2978 2977 2977 2979 2978 2976 2970 2969 2965 2966 2964 2966 2971 2974 2974 2976 2980 2983 2986 2993 2995 2998 3000 3004 3006 3010 3013 3013 3011
3017 3016 3015 3014 3013 3010 3007 3004 3001 2998 2995 2992 2989 2988 2985 2983 2981 2978 2976 2975 2976 2976 2978 2975 2972 2969 2967 2964 2963 2964 2970 2972 2974 2977 2979 2982 2986 2991 2996 2997 2999 3002 3005 3007 3010 3011 3008
3010 3010 3010 3009 3007 3005 3003 3000 2998 2996 2995 2992 2989 2987 2986 2984 2980 2978 2977 2974 2973 2976 2979 2976 2974 2971 2968 2966 2968 2970 2969 2973 2976 2977 2980 2983 2987 2991 2995 2998 2999 3001 3005 3007 3008 3008 3004
3004 3003 3003 3003 3003 3001 2999 2996 2995 2994 2993 2993 2990 2987 2986 2984 2984 2981 2977 2974 2973 2974 2975 2977 2975 2973 2971 2969 2970 2974 2974 2975 2979 2980 2981 2984 2988 2990 2995 2999 3001 3003 3005 3006 3006 3005 3000
2997 2998 2998 2998 2997 2996 2995 2993 2992 2992 2992 2992 2991 2989 2988 2986 2984 2981 2978 2975 2971 2972 2974 2975 2975 2974 2973 2973 2973 2974 2978 2980 2979 2981 2982 2986 2990 2992 2994 2997 2998 3000 3000 3000 3000 2998 2997
2990 2991 2992 2992 2992 2991 2991 2990 2989 2989 2989 2990 2990 2988 2987 2985 2983 2982 2979 2974 2972 2971 2975 2977 2976 2976 2978 2979 2979 2980 2980 2978 2980 2983 2984 2987 2990 2991 2994 2995 2996 2995 2995 2994 2995 2993 2990
2983 2985 2986 2986 2986 2986 2986 2985 2985 2986 2986 2987 2987 2987 2986 2985 2983 2983 2981 2979 2975 2974 2977 2977 2978 2979 2977 2977 2978 2978 2979 2980 2982 2984 2985 2987 2989 2990 2991 2993 2993 2993 2990 2992 2991 2989 2988
2977 2978 2979 2980 2981 2981 2981 2981 2981 2982 2983 2985 2986 2985 2984 2982 2982 2982 2982 2981 2980 2978 2977 2977 2978 2978 2979 2977 2977 2978 2978 2980 2981 2982 2983 2985 2986 2988 2989 2989 2990 2987 2988 2989 2988 2987 2985
2970 2972 2973 2974 2975 2975 2976 2976 2977 2978 2980 2982 2984 2984 2982 2980 2980 2981 2980 2981 2982 2981 2980 2979 2979 2978 2978 2979 2979 2978 2979 2979 2981 2981 2981 2982 2984 2987 2988 2988 2987 2985 2986 2988 2985 2982 2982
2963 2965 2967 2968 2969 2970 2971 2972 2972 2974 2977 2979 2981 2982 2981 2981 2980 2979 2979 2980 2981 2981 2982 2981 2981 2980 2980 2978 2978 2978 2979 2980 2981 2983 2983 2983 2984 2988 2988 2988 2988 2985 2985 2985 2984 2981 2979
2956 2958 2960 2962 2963 2964 2966 2967 2968 2970 2973 2975 2978 2979 2979 2979 2979 2978 2980 2980 2981 2981 2981 2981 2981 2981 2980 2979 2979 2979 2980 2982 2984 2983 2984 2984 2985 2985 2985 2987 2984 2983 2982 2982 2983 2982 2978
2948 2951 2954 2956 2958 2959 2960 2962 2963 2967 2970 2972 2974 2976 2977 2976 2977 2977 2978 2979 2979 2980 2981 2982 2982 2981 2981 2981 2982 2982 2983 2983 2983 2984 2985 2986 2985 2985 2985 2985 2983 2979 2980 2981 2979 2976 2977
2941 2944 2948 2950 2952 2953 2955 2957 2959 2962 2966 2968 2970 2973 2975 2975 2975 2976 2976 2977 2978 2978 2980 2981 2983 2982 2982 2983 2983 2982 2983 2984 2984 2984 2984 2985 2985 2985 2987 2983 2977 2977 2977 2976 2974 2974 2975